Location: Boven-Haastrecht
(52.0106°N, 4.7996°E)
Time: 14:40:44
(UTC+00:00)

Daily predictions for brighter satellites

Satellite Brightness Start Highest point End
(mag) Time Altitude Azimuth Time Altitude Azimuth Time Altitude Azimuth
Cosmos 1607 4.3 17:05:10 10° NW 17:11:28 72° SW 17:17:37 10° SSE
Lacrosse 4 Rocket 2.7 17:10:37 10° NNW 17:14:06 24° NE 17:17:38 10° E
SL-16 R/B 3.8 17:11:49 10° SE 17:14:40 14° E 17:17:31 10° ENE
Cosmos 2344 4.3 17:07:20 10° NW 17:15:26 54° NNE 17:26:15 10° ESE
Cosmos 2082 4.3 17:11:12 10° NW 17:16:47 65° WSW 17:22:19 10° SSE
ATLAS 3B R/B 2.7 17:11:01 10° SW 17:17:36 81° SE 17:24:32 10° NE
SMAP 3.8 17:14:26 10° S 17:19:02 59° W 17:23:40 10° NNW
Cosmos 1470 3.6 17:16:23 10° SSW 17:20:18 56° WNW 17:24:14 10° N
Cosmos 1703 3.3 17:21:07 10° N 17:25:01 57° ENE 17:28:52 10° SSE
ATLAS 5 CENTAUR R/B 2.2 17:24:58 10° S 17:28:27 32° ESE 17:32:20 10° ENE
Cosmos 1821 Rocket 4.1 17:22:50 10° S 17:29:05 60° E 17:35:20 10° NNE
Cosmos 2322 Rocket 3.7 17:27:02 10° SE 17:29:49 14° E 17:32:19 11° ENE
Cosmos 2218 Rocket 4.4 17:23:54 10° SSW 17:30:12 71° WNW 17:36:36 10° N
Cosmos 1300 4.0 17:27:56 10° SE 17:30:45 20° E 17:33:35 10° NE
SKYMED 2 4.0 17:26:46 10° NNE 17:30:56 41° E 17:35:02 10° S
CENTAUR R/B 3.9 17:31:38 10° WNW 17:37:51 36° N 17:45:08 10° NE
SL-19 R/B 4.3 17:33:32 10° NNE 17:39:21 68° ESE 17:44:53 10° S
MOS 1-B Rocket 4.4 17:34:12 10° NNE 17:40:57 49° E 17:46:47 10° S
NOSS 3-1 (C) 4.5 17:37:18 10° SSE 17:41:05 20° ESE 17:44:06 14° ENE
Cosmos 405 Rocket 2.7 17:37:53 10° N 17:41:51 75° ENE 17:45:50 10° SSE
HJ-1C 4.3 17:39:25 10° SE 17:42:10 26° ENE 17:44:57 10° N
YAOGAN 1 3.0 17:38:29 10° SE 17:42:32 40° ENE 17:46:36 10° N
Cosmos 1408 4.3 17:41:47 10° NNE 17:43:55 15° ENE 17:43:55 15° ENE
Cosmos 1455 Rocket 3.2 17:40:02 10° S 17:44:18 51° E 17:48:38 10° NNE
Cosmos 724 4.4 17:38:56 10° NW 17:44:58 84° SW 17:50:49 10° SE
H-2A R/B 3.3 17:42:43 10° NE 17:45:41 19° E 17:48:39 10° SE
Cosmos 1934 Rocket 4.2 17:41:43 10° SSE 17:47:27 46° E 17:53:12 10° NNE
CZ-4B R/B 3.5 17:42:35 10° SSE 17:48:14 76° WSW 17:53:57 10° NNW
Cosmos 2150 Rocket 4.3 17:43:42 10° SSW 17:49:07 77° WNW 17:54:31 10° NNE
Cosmos 1328 3.8 17:48:06 10° N 17:52:07 63° ENE 17:56:07 10° SSE
Cosmos 839 Rocket 4.4 17:43:52 10° NW 17:52:09 67° NE 17:58:36 11° SE
SL-08 RB Rocket 3.8 17:47:51 10° SSE 17:52:18 57° ENE 17:56:50 10° N
Okean O Rocket 1.7 17:48:28 10° SSE 17:52:50 80° WSW 17:57:13 10° NNW
H-2A R/B 2.5 17:50:18 10° SSE 17:54:34 63° ENE 17:58:42 10° N
CZ-4C R/B 3.0 17:53:35 10° NNE 17:56:57 51° E 18:00:12 10° S
Cosmos 1544 Rocket 3.9 17:53:57 10° SSE 17:58:09 42° E 18:02:23 10° NNE
Cosmos 1953 2.3 17:54:24 10° S 17:58:28 87° W 18:02:33 10° N
Cosmos 2227 4.3 17:52:44 10° NNW 17:58:34 88° WSW 18:04:19 10° SSE
Cosmos 2369 3.9 17:55:12 10° SW 18:00:52 76° WNW 18:06:37 10° NNE
Cosmos 2263 Rocket 2.5 17:55:55 10° NW 18:01:29 69° WSW 18:06:59 10° SSE
Cosmos 1174 3.5 17:58:48 10° SW 18:01:54 62° NW 18:04:16 15° NNE
Cosmos 2123 Rocket 4.0 17:56:25 10° N 18:02:47 77° E 18:09:06 10° SSE
ARGOS 3.2 17:57:56 10° SSE 18:03:21 86° WSW 18:08:49 10° NNW
Cosmos 1980 Rocket 2.2 17:59:38 10° SSW 18:05:19 87° WNW 18:11:04 10° NNE
H-2A R/B 3.0 18:02:57 10° S 18:08:13 54° W 18:13:35 10° NNW
Okean 1-7 Rocket 3.5 18:04:05 10° N 18:08:31 82° E 18:12:57 10° SSE
CZ-4 R/B 1.3 18:04:47 10° SSE 18:08:46 69° ENE 18:12:52 10° N
Okean-O 3.0 18:05:16 14° SE 18:08:49 43° ENE 18:13:01 10° N
CSL-04 Debris 4.5 18:05:38 11° SE 18:10:35 45° ENE 18:15:44 10° N
MetOp-A 4.3 18:08:10 10° SE 18:13:18 49° ENE 18:18:27 10° N
Cosmos 614 Rocket 4.2 18:08:49 10° NNW 18:13:44 47° ENE 18:16:31 24° ESE
Iridium 4 Rocket 3.2 18:12:33 10° N 18:17:00 89° W 18:21:50 10° S
Cosmos 1943 Rocket 4.4 18:17:01 10° NNW 18:18:46 11° N 18:20:32 10° NNE
Cosmos 1892 3.2 18:15:16 10° N 18:18:48 35° ENE 18:18:55 35° ENE
Cosmos 389 Rocket 4.4 18:15:54 10° SW 18:18:57 30° WNW 18:22:02 10° N
Cosmos 1602 Rocket 3.6 18:14:47 10° N 18:19:05 53° ENE 18:22:14 17° SSE
COSMO-SKYMED 1 2.8 18:14:45 10° N 18:19:06 71° WNW 18:23:25 10° SSW
CZ-2C R/B 2.7 18:14:29 10° NNE 18:20:09 90° ENE 18:25:43 10° SSW
Resurs 01 Rocket 3.8 18:22:55 11° NE 18:22:55 11° NE 18:23:33 10° NNE
Cosmos 1697 Rocket 3.8 18:17:01 10° WSW 18:22:23 43° NW 18:27:47 10° NNE
Landsat 5 3.9 18:20:13 10° N 18:24:34 69° WNW 18:28:59 10° SSW
Cosmos 332 Rocket 4.4 18:20:42 10° SSE 18:25:06 34° ESE 18:25:52 32° E
CSL-04 Rocket 3.8 18:22:16 16° SE 18:26:35 55° ENE 18:32:01 10° N
X-37B 2.3 18:26:42 10° WSW 18:29:15 23° S 18:29:33 22° S
OBJECT-B 2.9 18:37:35 17° NNE 18:37:35 17° NNE 18:38:29 10° N
Cosmos 1844 Rocket 2.7 18:30:15 10° NNW 18:35:47 59° NE 18:38:02 35° ESE
USA 215 3.5 18:31:34 22° ENE 18:35:57 64° NNW 18:42:25 10° W
NOSS 2-3 (E) 4.3 18:33:59 10° S 18:37:00 34° SE 18:37:00 34° SE
USA 229 DEB 4.2 18:36:37 10° S 18:42:06 33° ESE 18:42:06 33° ESE
USA 229 4.2 18:36:44 10° S 18:42:07 32° ESE 18:42:07 32° ESE
IRAS Rocket 4.2 18:37:14 10° NNE 18:42:51 89° ESE 18:48:22 10° SSW
Cosmos 1825 Rocket 4.1 18:38:52 10° N 18:42:19 38° NE 18:42:19 38° NE
Cosmos 2278 4.1 18:37:27 10° SW 18:43:06 64° NW 18:48:47 10° NNE
Cosmos 1758 Rocket 3.4 18:43:36 10° N 18:47:56 68° ENE 18:48:34 57° SE
Cosmos 2278 Rocket 3.6 18:44:30 10° NNW 18:48:55 22° NE 18:49:28 22° NE
IRS-P2 Rocket 4.5 18:46:23 20° SSE 18:50:06 84° ENE 18:55:21 10° NNW
Cosmos 2251 Rocket 3.4 18:45:23 10° NNW 18:50:41 82° ENE 18:52:48 37° SSE
Ariane Rocket 4.1 18:52:40 29° NE 18:52:40 29° NE 18:56:16 10° N
Cosmos 371 Rocket 3.2 18:48:08 10° SSW 18:53:01 89° WNW 18:57:57 10° NNE
Lacrosse 4 Rocket 1.5 18:48:56 10° NW 18:53:13 74° WSW 18:54:19 49° SSE
IRS-1C Rocket 4.4 18:49:28 10° S 18:54:43 68° WSW 19:00:00 10° NNW
Cosmos 1605 Rocket 3.9 18:48:42 10° S 18:54:58 86° E 19:01:23 10° N
Cosmos 1626 Rocket 4.4 18:51:25 10° NNW 18:55:37 50° W 18:59:47 10° S
SJ-6B 4.0 18:57:57 30° NNE 18:57:57 30° NNE 19:00:06 10° N
GENESIS II 4.3 18:52:52 10° NW 18:56:29 66° N 18:56:29 66° N
SL-16 R/B 2.1 18:52:09 10° SSW 18:57:47 74° ESE 19:01:52 20° NE
Cosmos 1447 Rocket 4.4 18:54:45 10° N 19:00:57 87° W 19:07:05 10° S
SeaSat 1 4.3 19:01:37 17° NNE 19:01:37 17° NNE 19:04:37 10° N
USA 186 4.4 19:04:21 13° N 19:04:21 13° N 19:04:42 10° N
NOSS 3-1 (A) 4.1 18:59:20 10° S 19:02:24 31° SSE 19:02:24 31° SSE
Cosmos 1300 4.0 19:02:31 10° SW 19:06:07 40° WNW 19:09:44 10° N
Cosmos 407 Rocket 3.5 19:02:03 10° NNW 19:07:19 59° ENE 19:07:25 59° ENE
ATLAS 3B R/B 3.7 19:02:39 10° W 19:08:57 41° NNW 19:14:03 17° NE
Cosmos 1153 Rocket 4.4 19:02:54 10° S 19:09:16 73° E 19:15:40 10° NNE
MOS 1 4.5 19:09:39 50° ENE 19:09:39 50° ENE 19:15:08 10° N
ATLAS 5 CENTAUR R/B 2.3 19:08:56 10° WSW 19:12:51 47° NW 19:13:58 38° N
Cosmos 2322 Rocket 2.0 19:07:17 10° SSW 19:12:52 74° ESE 19:14:13 52° NE
Meteor 2-10 Rocket 3.6 19:08:42 10° SSW 19:14:19 83° WNW 19:19:44 10° NNE
SL-8 R/B 4.2 19:10:14 10° WSW 19:14:17 48° SSW 19:14:17 48° SSW
Cosmos 1844 3.6 19:09:17 10° NNW 19:15:08 89° ENE 19:16:17 60° SSE
Cosmos 1825 4.0 19:12:19 10° N 19:13:54 24° N 19:13:54 24° N
Cosmos 1408 3.9 19:15:42 10° NNW 19:18:10 37° NW 19:18:10 37° NW
Cosmos 1140 Rocket 3.5 19:14:12 10° NNW 19:19:01 65° NE 19:19:01 65° NE
H-2A R/B 2.6 19:17:57 10° N 19:21:58 54° WNW 19:26:00 10° SW
Cosmos 2360 Rocket 3.8 19:19:50 10° SSW 19:21:41 21° S 19:21:41 21° S
Orbus 7S? 4.4 19:20:20 10° WNW 19:28:25 53° SW 19:28:54 50° SSW
CENTAUR R/B 3.8 19:23:33 10° NW 19:30:29 40° NNE 19:32:46 34° NE
Cosmos 2344 4.5 19:21:41 10° NW 19:30:34 68° SW 19:38:08 26° SSE
NOSS 3-1 (C) 3.2 19:25:25 10° SW 19:30:51 89° SE 19:31:33 71° NE
CZ-4 R/B 4.4 19:41:56 10° WSW 19:44:14 15° W 19:46:35 10° NW
Cosmos 1980 Rocket 4.2 19:45:32 10° W 19:50:08 25° NW 19:54:47 10° NNE
Resurs 01 Rocket 3.8 20:00:29 19° N 20:00:29 19° N 20:01:47 10° N
Cosmos 1943 Rocket 4.1 20:00:35 10° NNW 20:03:29 20° NNE 20:03:29 20° NNE
Cosmos 2369 Rocket 4.4 20:10:27 10° NNW 20:12:51 15° NNE 20:12:51 15° NNE
Cosmos 2100 Rocket 4.3 20:14:15 65° WNW 20:14:15 65° WNW 20:20:27 10° N
USA 215 3.5 20:18:54 60° N 20:18:54 60° N 20:25:02 10° WNW
Cosmos 1844 Rocket 4.2 20:14:37 10° NW 20:19:22 29° WSW 20:19:43 29° WSW
Lacrosse 4 Rocket 4.5 20:29:47 10° W 20:30:38 11° W 20:30:38 11° W
Cosmos 2278 Rocket 3.6 20:28:15 10° NNW 20:31:18 33° NNW 20:31:18 33° NNW
SL-16 R/B 3.9 20:37:33 10° W 20:42:27 29° NW 20:43:48 26° NNW
Cosmos 2322 Rocket 4.0 20:52:39 10° W 20:56:08 26° WNW 20:56:08 26° WNW
ATLAS 3B R/B 4.1 20:55:20 10° WNW 21:01:17 31° N 21:01:17 31° N
CENTAUR R/B 3.7 21:14:30 10° NW 21:19:55 50° NNW 21:19:55 50° NNW
